Tracking 30692 objects as of 16-Jun-2025
HD Live streaming from Space Station
objects crossing your sky now

FENGYUN 1C DEB

Track FENGYUN 1C DEB now!
10-day predictions


NORAD ID: 36734
Int'l Code: 1999-025EBG
Perigee: 792.2 km
Apogee: 843.0 km
Inclination: 99.1 °
Period: 101.1 minutes
Semi major axis: 7188 km
RCS: 0.0055 m2 (small)
Launch date: May 10, 1999
Source: People's Republic of China (PRC)
Launch site: Taiyaun Space Center, China (TSC)

Note: This is SATELLITE DEBRIS
Your satellite tracking list
Your tracking list is empty




NASA's NSSDC Master Catalog

Two Line Element Set (TLE):
1 36734U 99025EBG 25166.57421324  .00002981  00000-0  12997-2 0  9996
2 36734  99.0617 207.6902 0035395  23.4113 336.8667 14.24413876801606
Source of the keplerian elements: AFSPC